Time,TemperatureF,DewpointF,PressureIn,WindDirection,WindDirectionDegrees,WindSpeedMPH,WindSpeedGustMPH,Humidity,HourlyPrecipIn,Conditions,Clouds,dailyrainin,SoftwareType,DateUTC
2013-03-03 00:02:00,24.0,19.0,30.08,NW,315,7.0,10.0,80,0.00,,,0.00,,2013-03-03 05:02:00,
2013-03-03 00:12:00,24.0,19.0,30.08,NW,315,7.0,10.0,80,0.00,,,0.00,,2013-03-03 05:12:00,
2013-03-03 00:22:00,24.0,18.0,30.08,NW,313,6.0,10.0,78,0.00,,,0.00,,2013-03-03 05:22:00,
2013-03-03 00:32:00,24.0,18.0,30.08,WNW,302,4.0,9.0,79,0.00,,,0.00,,2013-03-03 05:32:00,
2013-03-03 00:42:00,24.0,18.0,30.08,WNW,302,4.0,9.0,79,0.00,,,0.00,,2013-03-03 05:42:00,
2013-03-03 00:52:00,24.0,18.0,30.08,NW,320,6.0,11.0,79,0.00,,,0.00,,2013-03-03 05:52:00,
2013-03-03 01:02:00,24.0,19.0,30.08,NW,323,5.0,11.0,80,0.00,,,0.00,,2013-03-03 06:02:00,
2013-03-03 01:11:00,24.0,19.0,30.08,NW,323,5.0,11.0,80,0.00,,,0.00,,2013-03-03 06:11:00,
2013-03-03 01:22:00,24.0,19.0,30.08,NW,309,5.0,10.0,80,0.00,,,0.00,,2013-03-03 06:22:00,
2013-03-03 01:32:00,24.0,19.0,30.08,NW,305,6.0,12.0,80,0.00,,,0.00,,2013-03-03 06:32:00,
2013-03-03 01:42:00,24.0,19.0,30.08,NW,305,6.0,12.0,80,0.00,,,0.00,,2013-03-03 06:42:00,
2013-03-03 01:52:00,24.0,18.0,30.08,NW,317,6.0,11.0,79,0.00,,,0.00,,2013-03-03 06:52:00,
2013-03-03 02:01:00,24.0,18.0,30.08,NNW,335,6.0,13.0,78,0.00,,,0.00,,2013-03-03 07:01:00,
2013-03-03 02:11:00,24.0,18.0,30.08,NNW,335,6.0,13.0,78,0.00,,,0.00,,2013-03-03 07:11:00,
2013-03-03 02:21:00,24.0,18.0,30.08,NW,324,6.0,11.0,76,0.00,,,0.00,,2013-03-03 07:21:00,
2013-03-03 02:32:00,24.0,19.0,30.08,NW,305,5.0,10.0,80,0.00,,,0.00,,2013-03-03 07:32:00,
2013-03-03 02:42:00,24.0,19.0,30.08,NW,305,5.0,10.0,80,0.00,,,0.00,,2013-03-03 07:42:00,
2013-03-03 02:52:00,23.0,18.0,30.07,NW,314,9.0,13.0,80,0.00,,,0.00,,2013-03-03 07:52:00,
2013-03-03 03:01:00,23.0,18.0,30.07,WNW,294,6.0,12.0,81,0.00,,,0.00,,2013-03-03 08:01:00,
2013-03-03 03:11:00,23.0,18.0,30.07,WNW,294,6.0,12.0,81,0.00,,,0.00,,2013-03-03 08:11:00,
2013-03-03 03:21:00,23.0,18.0,30.07,NW,311,7.0,11.0,81,0.00,,,0.00,,2013-03-03 08:21:00,
2013-03-03 03:32:00,23.0,18.0,30.06,NW,312,6.0,11.0,81,0.00,,,0.00,,2013-03-03 08:32:00,
2013-03-03 03:42:00,23.0,18.0,30.06,NW,312,6.0,11.0,81,0.00,,,0.00,,2013-03-03 08:42:00,
2013-03-03 03:54:00,23.0,18.0,30.06,WNW,289,6.0,9.0,81,0.00,,,0.00,,2013-03-03 08:54:00,
2013-03-03 04:01:00,23.0,18.0,30.06,WNW,290,6.0,11.0,81,0.00,,,0.00,,2013-03-03 09:01:00,
2013-03-03 04:12:00,23.0,18.0,30.06,WNW,290,6.0,11.0,81,0.00,,,0.00,,2013-03-03 09:12:00,
2013-03-03 04:21:00,23.0,18.0,30.06,NW,308,6.0,9.0,81,0.00,,,0.00,,2013-03-03 09:21:00,
2013-03-03 04:32:00,23.0,18.0,30.06,NW,314,7.0,11.0,80,0.00,,,0.00,,2013-03-03 09:32:00,
2013-03-03 04:42:00,23.0,18.0,30.06,NW,314,7.0,11.0,80,0.00,,,0.00,,2013-03-03 09:42:00,
2013-03-03 04:52:00,23.0,18.0,30.06,WNW,294,4.0,8.0,81,0.00,,,0.00,,2013-03-03 09:52:00,
2013-03-03 05:01:00,23.0,18.0,30.06,NW,317,6.0,10.0,81,0.00,,,0.00,,2013-03-03 10:01:00,
2013-03-03 05:11:00,23.0,18.0,30.06,NW,317,6.0,10.0,81,0.00,,,0.00,,2013-03-03 10:11:00,
2013-03-03 05:21:00,23.0,18.0,30.06,NNW,340,7.0,10.0,80,0.00,,,0.00,,2013-03-03 10:21:00,
2013-03-03 05:32:00,23.0,18.0,30.06,NW,306,5.0,13.0,80,0.00,,,0.00,,2013-03-03 10:32:00,
2013-03-03 05:42:00,23.0,18.0,30.06,NW,306,5.0,13.0,80,0.00,,,0.00,,2013-03-03 10:42:00,
2013-03-03 05:52:00,23.0,17.0,30.06,NW,324,8.0,12.0,79,0.00,,,0.00,,2013-03-03 10:52:00,
2013-03-03 06:01:00,23.0,17.0,30.06,NW,326,6.0,9.0,79,0.00,,,0.00,,2013-03-03 11:01:00,
2013-03-03 06:11:00,23.0,17.0,30.06,NW,326,6.0,9.0,79,0.00,,,0.00,,2013-03-03 11:11:00,
2013-03-03 06:22:00,23.0,17.0,30.06,NNW,340,6.0,10.0,78,0.00,,,0.00,,2013-03-03 11:22:00,
2013-03-03 06:32:00,23.0,17.0,30.06,NNW,340,6.0,10.0,78,0.00,,,0.00,,2013-03-03 11:32:00,
2013-03-03 06:42:00,23.0,17.0,30.06,NNW,340,6.0,10.0,78,0.00,,,0.00,,2013-03-03 11:42:00,
2013-03-03 06:53:00,23.0,17.0,30.06,NNW,340,6.0,10.0,78,0.00,,,0.00,,2013-03-03 11:53:00,
2013-03-03 07:02:00,22.0,17.0,30.06,NW,309,8.0,12.0,82,0.00,,,0.00,,2013-03-03 12:02:00,
2013-03-03 07:11:00,22.0,17.0,30.06,NW,309,8.0,12.0,82,0.00,,,0.00,,2013-03-03 12:11:00,
2013-03-03 07:22:00,22.0,16.0,30.07,NW,309,7.0,12.0,79,0.00,,,0.00,,2013-03-03 12:22:00,
2013-03-03 07:32:00,22.0,16.0,30.07,NW,316,9.0,13.0,78,0.00,,,0.00,,2013-03-03 12:32:00,
2013-03-03 07:43:00,22.0,16.0,30.07,NW,316,9.0,13.0,78,0.00,,,0.00,,2013-03-03 12:43:00,
2013-03-03 07:53:00,22.0,15.0,30.07,NW,313,8.0,15.0,75,0.00,,,0.00,,2013-03-03 12:53:00,
2013-03-03 08:02:00,22.0,15.0,30.08,NW,306,9.0,15.0,75,0.00,,,0.00,,2013-03-03 13:02:00,
2013-03-03 08:11:00,22.0,15.0,30.08,NW,306,9.0,15.0,75,0.00,,,0.00,,2013-03-03 13:11:00,
2013-03-03 08:22:00,22.0,15.0,30.07,NW,316,11.0,15.0,73,0.00,,,0.00,,2013-03-03 13:22:00,
2013-03-03 08:32:00,22.0,14.0,30.08,NNW,339,8.0,15.0,71,0.00,,,0.00,,2013-03-03 13:32:00,
2013-03-03 08:42:00,22.0,14.0,30.08,NNW,339,8.0,15.0,71,0.00,,,0.00,,2013-03-03 13:42:00,
2013-03-03 08:52:00,22.0,14.0,30.07,WNW,292,11.0,18.0,70,0.00,,,0.00,,2013-03-03 13:52:00,
2013-03-03 09:02:00,23.0,15.0,30.08,WNW,294,10.0,16.0,70,0.00,,,0.00,,2013-03-03 14:02:00,
2013-03-03 09:11:00,23.0,15.0,30.08,WNW,294,10.0,16.0,70,0.00,,,0.00,,2013-03-03 14:11:00,
2013-03-03 09:22:00,23.0,15.0,30.08,NW,315,9.0,14.0,71,0.00,,,0.00,,2013-03-03 14:22:00,
2013-03-03 09:32:00,23.0,15.0,30.08,WNW,301,8.0,15.0,70,0.00,,,0.00,,2013-03-03 14:32:00,
2013-03-03 09:42:00,23.0,15.0,30.08,WNW,301,8.0,15.0,70,0.00,,,0.00,,2013-03-03 14:42:00,
2013-03-03 09:52:00,23.0,15.0,30.08,NNW,328,9.0,18.0,71,0.00,,,0.00,,2013-03-03 14:52:00,
2013-03-03 10:02:00,23.0,15.0,30.07,WNW,294,9.0,15.0,71,0.00,,,0.00,,2013-03-03 15:02:00,
2013-03-03 10:11:00,23.0,15.0,30.07,WNW,294,9.0,15.0,71,0.00,,,0.00,,2013-03-03 15:11:00,
2013-03-03 10:22:00,23.0,15.0,30.07,WNW,301,8.0,14.0,72,0.00,,,0.00,,2013-03-03 15:22:00,
2013-03-03 10:32:00,23.0,15.0,30.08,North,360,11.0,16.0,71,0.00,,,0.00,,2013-03-03 15:32:00,
2013-03-03 10:42:00,23.0,15.0,30.08,North,360,11.0,16.0,71,0.00,,,0.00,,2013-03-03 15:42:00,
2013-03-03 10:52:00,23.0,15.0,30.08,NW,317,11.0,14.0,72,0.00,,,0.00,,2013-03-03 15:52:00,
2013-03-03 11:02:00,23.0,15.0,30.08,WNW,295,7.0,14.0,71,0.00,,,0.00,,2013-03-03 16:02:00,
2013-03-03 11:12:00,23.0,15.0,30.08,WNW,295,7.0,14.0,71,0.00,,,0.00,,2013-03-03 16:12:00,
2013-03-03 11:22:00,23.0,15.0,30.08,North,355,7.0,13.0,71,0.00,,,0.00,,2013-03-03 16:22:00,
2013-03-03 11:32:00,23.0,15.0,30.08,NNW,347,7.0,12.0,71,0.00,,,0.00,,2013-03-03 16:32:00,
2013-03-03 11:42:00,23.0,15.0,30.08,NNW,347,7.0,12.0,71,0.00,,,0.00,,2013-03-03 16:42:00,
2013-03-03 11:52:00,23.0,15.0,30.08,WNW,293,9.0,14.0,71,0.00,,,0.00,,2013-03-03 16:52:00,
2013-03-03 12:01:00,24.0,16.0,30.08,NW,314,6.0,12.0,71,0.00,,,0.00,,2013-03-03 17:01:00,
2013-03-03 12:11:00,24.0,16.0,30.08,NW,321,6.0,15.0,70,0.00,,,0.00,,2013-03-03 17:11:00,
2013-03-03 12:22:00,24.0,16.0,30.08,NW,321,6.0,15.0,70,0.00,,,0.00,,2013-03-03 17:22:00,
2013-03-03 12:32:00,24.0,15.0,30.08,NW,306,5.0,10.0,69,0.00,,,0.00,,2013-03-03 17:32:00,
2013-03-03 12:42:00,24.0,15.0,30.08,NW,306,5.0,10.0,69,0.00,,,0.00,,2013-03-03 17:42:00,
2013-03-03 12:52:00,24.0,16.0,30.07,NW,325,7.0,13.0,70,0.00,,,0.00,,2013-03-03 17:52:00,
2013-03-03 13:02:00,25.0,16.0,30.06,NW,321,6.0,12.0,69,0.00,,,0.00,,2013-03-03 18:02:00,
2013-03-03 13:11:00,25.0,16.0,30.06,NW,321,6.0,12.0,69,0.00,,,0.00,,2013-03-03 18:11:00,
2013-03-03 13:22:00,25.0,16.0,30.06,WNW,294,7.0,12.0,68,0.00,,,0.00,,2013-03-03 18:22:00,
2013-03-03 13:32:00,26.0,17.0,30.06,West,279,7.0,10.0,68,0.00,,,0.00,,2013-03-03 18:32:00,
2013-03-03 13:42:00,26.0,17.0,30.06,West,279,7.0,10.0,68,0.00,,,0.00,,2013-03-03 18:42:00,
2013-03-03 13:52:00,26.0,17.0,30.05,WNW,302,6.0,12.0,68,0.00,,,0.00,,2013-03-03 18:52:00,
2013-03-03 14:02:00,27.0,17.0,30.04,NW,309,8.0,14.0,65,0.00,,,0.00,,2013-03-03 19:02:00,
2013-03-03 14:11:00,27.0,17.0,30.04,NW,309,8.0,14.0,65,0.00,,,0.00,,2013-03-03 19:11:00,
2013-03-03 14:22:00,27.0,16.0,30.03,NW,317,7.0,12.0,64,0.00,,,0.00,,2013-03-03 19:22:00,
2013-03-03 14:32:00,28.0,17.0,30.03,West,259,6.0,10.0,63,0.00,,,0.00,,2013-03-03 19:32:00,
2013-03-03 14:42:00,28.0,17.0,30.03,West,259,6.0,10.0,63,0.00,,,0.00,,2013-03-03 19:42:00,
2013-03-03 14:52:00,28.0,17.0,30.03,West,273,6.0,13.0,64,0.00,,,0.00,,2013-03-03 19:52:00,
2013-03-03 15:01:00,28.0,17.0,30.03,WNW,295,8.0,14.0,62,0.00,,,0.00,,2013-03-03 20:01:00,
2013-03-03 15:11:00,28.0,17.0,30.03,WNW,295,8.0,14.0,62,0.00,,,0.00,,2013-03-03 20:11:00,
2013-03-03 15:22:00,28.0,17.0,30.03,WNW,300,7.0,15.0,63,0.00,,,0.00,,2013-03-03 20:22:00,
2013-03-03 15:32:00,28.0,17.0,30.03,WNW,300,8.0,13.0,63,0.00,,,0.00,,2013-03-03 20:32:00,
2013-03-03 15:42:00,28.0,17.0,30.03,WNW,300,8.0,13.0,63,0.00,,,0.00,,2013-03-03 20:42:00,
2013-03-03 15:53:00,29.0,16.0,30.03,WNW,289,8.0,16.0,59,0.00,,,0.00,,2013-03-03 20:53:00,
2013-03-03 16:02:00,29.0,16.0,30.03,NW,306,10.0,15.0,58,0.00,,,0.00,,2013-03-03 21:02:00,
2013-03-03 16:12:00,29.0,16.0,30.03,NW,306,10.0,15.0,58,0.00,,,0.00,,2013-03-03 21:12:00,
2013-03-03 16:22:00,29.0,16.0,30.03,NW,304,11.0,19.0,58,0.00,,,0.00,,2013-03-03 21:22:00,
2013-03-03 16:32:00,29.0,16.0,30.03,WNW,294,11.0,18.0,58,0.00,,,0.00,,2013-03-03 21:32:00,
2013-03-03 16:42:00,29.0,16.0,30.03,WNW,294,11.0,18.0,58,0.00,,,0.00,,2013-03-03 21:42:00,
2013-03-03 16:52:00,29.0,16.0,30.03,NW,306,12.0,15.0,58,0.00,,,0.00,,2013-03-03 21:52:00,
2013-03-03 17:02:00,29.0,15.0,30.03,NW,323,8.0,15.0,56,0.00,,,0.00,,2013-03-03 22:02:00,
2013-03-03 17:11:00,29.0,15.0,30.03,NW,323,8.0,15.0,56,0.00,,,0.00,,2013-03-03 22:11:00,
2013-03-03 17:22:00,30.0,16.0,30.04,WNW,295,9.0,15.0,56,0.00,,,0.00,,2013-03-03 22:22:00,
2013-03-03 17:32:00,29.0,15.0,30.04,NW,306,9.0,15.0,55,0.00,,,0.00,,2013-03-03 22:32:00,
2013-03-03 17:42:00,29.0,15.0,30.04,NW,306,9.0,15.0,55,0.00,,,0.00,,2013-03-03 22:42:00,
2013-03-03 17:52:00,29.0,15.0,30.04,NNW,338,8.0,13.0,56,0.00,,,0.00,,2013-03-03 22:52:00,
2013-03-03 18:01:00,29.0,16.0,30.05,NW,309,9.0,14.0,58,0.00,,,0.00,,2013-03-03 23:01:00,
2013-03-03 18:11:00,29.0,16.0,30.05,NW,309,9.0,14.0,58,0.00,,,0.00,,2013-03-03 23:11:00,
2013-03-03 18:21:00,29.0,16.0,30.05,NW,319,7.0,12.0,59,0.00,,,0.00,,2013-03-03 23:21:00,
2013-03-03 18:32:00,28.0,16.0,30.05,NW,311,7.0,12.0,60,0.00,,,0.00,,2013-03-03 23:32:00,
2013-03-03 18:42:00,28.0,16.0,30.05,NW,311,7.0,12.0,60,0.00,,,0.00,,2013-03-03 23:42:00,
2013-03-03 18:52:00,28.0,16.0,30.05,WNW,301,6.0,11.0,61,0.00,,,0.00,,2013-03-03 23:52:00,
2013-03-03 19:02:00,28.0,18.0,30.06,NW,309,5.0,9.0,65,0.00,,,0.00,,2013-03-04 00:02:00,
2013-03-03 19:11:00,28.0,18.0,30.06,NW,309,5.0,9.0,65,0.00,,,0.00,,2013-03-04 00:11:00,
2013-03-03 19:22:00,27.0,16.0,30.06,NW,304,3.0,7.0,64,0.00,,,0.00,,2013-03-04 00:22:00,
2013-03-03 19:32:00,27.0,18.0,30.07,NW,326,4.0,6.0,68,0.00,,,0.00,,2013-03-04 00:32:00,
2013-03-03 19:42:00,27.0,18.0,30.07,NW,326,4.0,6.0,68,0.00,,,0.00,,2013-03-04 00:42:00,
2013-03-03 19:52:00,27.0,18.0,30.07,NW,320,3.0,5.0,69,0.00,,,0.00,,2013-03-04 00:52:00,
2013-03-03 20:01:00,26.0,18.0,30.07,NW,321,1.0,4.0,70,0.00,,,0.00,,2013-03-04 01:01:00,
2013-03-03 20:12:00,26.0,18.0,30.07,NW,321,1.0,4.0,70,0.00,,,0.00,,2013-03-04 01:12:00,
2013-03-03 20:22:00,26.0,18.0,30.07,NW,321,1.0,4.0,71,0.00,,,0.00,,2013-03-04 01:22:00,
2013-03-03 20:32:00,26.0,17.0,30.08,NW,321,1.0,3.0,69,0.00,,,0.00,,2013-03-04 01:32:00,
2013-03-03 20:42:00,26.0,17.0,30.08,NW,321,1.0,3.0,69,0.00,,,0.00,,2013-03-04 01:42:00,
2013-03-03 20:52:00,27.0,18.0,30.08,NW,321,1.0,3.0,68,0.00,,,0.00,,2013-03-04 01:52:00,
2013-03-03 21:01:00,26.0,17.0,30.08,NW,321,0.0,2.0,69,0.00,,,0.00,,2013-03-04 02:01:00,
2013-03-03 21:11:00,26.0,17.0,30.08,NW,321,0.0,2.0,69,0.00,,,0.00,,2013-03-04 02:11:00,
2013-03-03 21:22:00,26.0,17.0,30.08,NW,321,0.0,2.0,68,0.00,,,0.00,,2013-03-04 02:22:00,
2013-03-03 21:32:00,26.0,17.0,30.08,NW,321,0.0,0.0,69,0.00,,,0.00,,2013-03-04 02:32:00,
2013-03-03 21:42:00,26.0,17.0,30.08,NW,321,0.0,0.0,69,0.00,,,0.00,,2013-03-04 02:42:00,
2013-03-03 21:53:00,25.0,19.0,30.08,NW,321,0.0,2.0,77,0.00,,,0.00,,2013-03-04 02:53:00,
2013-03-03 22:02:00,25.0,20.0,30.08,NW,321,1.0,2.0,80,0.00,,,0.00,,2013-03-04 03:02:00,
2013-03-03 22:11:00,25.0,20.0,30.08,NW,321,1.0,2.0,80,0.00,,,0.00,,2013-03-04 03:11:00,
2013-03-03 22:22:00,25.0,19.0,30.09,North,360,2.0,4.0,78,0.00,,,0.00,,2013-03-04 03:22:00,
2013-03-03 22:32:00,25.0,19.0,30.09,NW,321,1.0,4.0,78,0.00,,,0.00,,2013-03-04 03:32:00,
2013-03-03 22:42:00,25.0,20.0,30.09,NW,321,1.0,3.0,80,0.00,,,0.00,,2013-03-04 03:42:00,
2013-03-03 22:53:00,25.0,20.0,30.09,NW,321,1.0,3.0,80,0.00,,,0.00,,2013-03-04 03:53:00,
2013-03-03 23:01:00,25.0,19.0,30.08,WNW,289,4.0,8.0,78,0.00,,,0.00,,2013-03-04 04:01:00,
2013-03-03 23:11:00,25.0,19.0,30.08,WNW,289,4.0,8.0,78,0.00,,,0.00,,2013-03-04 04:11:00,
2013-03-03 23:22:00,25.0,19.0,30.08,WNW,289,4.0,8.0,78,0.00,,,0.00,,2013-03-04 04:22:00,
2013-03-03 23:32:00,25.0,18.0,30.08,WNW,300,5.0,9.0,74,0.00,,,0.00,,2013-03-04 04:32:00,
2013-03-03 23:42:00,25.0,18.0,30.08,WNW,300,5.0,9.0,74,0.00,,,0.00,,2013-03-04 04:42:00,
2013-03-03 23:52:00,24.0,17.0,30.08,NW,305,6.0,9.0,74,0.00,,,0.00,,2013-03-04 04:52:00,